Location: Dos Palmas
(32.4468°N, 116.8732°W)
Time: 00:33:48
(UTC+00:00)

SPOT 3 Rocket - Pass Details

Date: 20 June 2021
Orbit: 779 x 794 km, 98.7° (Epoch: 01 August)

Event Time Altitude Azimuth Distance (km) Brightness Sun altitude
Exits shadow 04:22:39 24° 142° (SE) 1,581 4.5 -15.5°
Maximum altitude 04:25:39 56° 74° (ENE) 931 3.7 -16.0°
Drops below altitude 10° 04:30:42 10° 357° (N) 2,352 6.7 -16.8°
Sets 04:33:04 0° 353° (N) 3,286 7.6 -17.1°
